This is the latest recevied weather packets stored in our database for station/object DL1GHN-6. If no packets are shown the sender has not sent any weather packets the latest 10 day(s).
| Time | Temp. | Humidity | Pressure | Rain* | Wind** | Luminosity | Snow |
|---|---|---|---|---|---|---|---|
| 1778078083 | 13.33° C | 83% | 1007.9 hPa | 0.25 mm | - | 26 W/m² | - |
| 1778077785 | 13.33° C | 82% | 1007.8 hPa | 0.25 mm | - | 19 W/m² | - |
| 1778077483 | 13.33° C | 82% | 1007.7 hPa | 0.25 mm | - | 16 W/m² | - |
| 1778077184 | 13.89° C | 81% | 1007.6 hPa | 0.25 mm | - | 14 W/m² | - |
| 1778076884 | 13.89° C | 80% | 1007.6 hPa | 0 mm | - | 14 W/m² | - |
| 1778076585 | 14.44° C | 80% | 1007.4 hPa | 0.25 mm | - | 12 W/m² | - |
| 1778076285 | 14.44° C | 79% | 1007.2 hPa | 0.51 mm | - | 11 W/m² | - |
| 1778075984 | 14.44° C | 79% | 1007.1 hPa | 0.51 mm | - | 44 W/m² | - |
| 1778075684 | 14.44° C | 79% | 1007 hPa | 0.51 mm | - | 42 W/m² | - |
| 1778075384 | 14.44° C | 82% | 1007 hPa | 0.76 mm | - | 51 W/m² | - |
| 1778075084 | 14.44° C | 84% | 1007 hPa | 0.76 mm | - | 40 W/m² | - |
| 1778074784 | 14.44° C | 84% | 1007 hPa | 0.76 mm | - | 33 W/m² | - |
| 1778074484 | 14.44° C | 84% | 1007 hPa | 0.76 mm | - | 32 W/m² | - |
| 1778074184 | 14.44° C | 83% | 1007 hPa | 0.76 mm | - | 37 W/m² | - |
| 1778073885 | 14.44° C | 83% | 1006.9 hPa | 0.76 mm | - | 30 W/m² | - |
| 1778073585 | 14.44° C | 83% | 1006.8 hPa | 0.76 mm | - | 63 W/m² | - |
| 1778073284 | 14.44° C | 84% | 1006.7 hPa | 0.76 mm | - | 100 W/m² | - |
| 1778072984 | 14.44° C | 83% | 1006.7 hPa | 0.51 mm | - | 63 W/m² | - |
| 1778072684 | 15° C | 82% | 1006.7 hPa | 0.51 mm | - | 42 W/m² | - |
| 1778072384 | 15° C | 80% | 1006.7 hPa | 0.25 mm | - | 46 W/m² | - |
| 1778072084 | 15.56° C | 79% | 1006.6 hPa | 0.25 mm | - | 21 W/m² | - |
| 1778071785 | 15.56° C | 79% | 1006.6 hPa | 0 mm | - | 32 W/m² | - |
| 1778071485 | 15.56° C | 79% | 1006.5 hPa | 0 mm | - | 105 W/m² | - |
| 1778071184 | 16.11° C | 78% | 1006.5 hPa | 0 mm | - | 137 W/m² | - |
| 1778070884 | 16.11° C | 77% | 1006.5 hPa | 0 mm | - | 155 W/m² | - |
* Rain latest hour (hover to see other rain measurements)
** Current wind speed in m/s (hover to see current wind gust speed)